Location: Ergnies
(50.0854°N, 2.0375°E)
Time: 07:10:32
(UTC+00:00)

Cosmos 2228 Rocket - Pass Details

Date: 14 January 2026
Orbit: 612 x 647 km, 82.5° (Epoch: 10 February)

Event Time Altitude Azimuth Distance (km) Brightness Sun altitude
Rises 06:59:07 0° 345° (NNW) 2,906 6.1 -7.4°
Reaches altitude 10° 07:01:25 10° 339° (NNW) 1,991 5.2 -7.0°
Maximum altitude 07:05:37 45° 267° (W) 842 3.4 -6.4°
Drops below altitude 10° 07:09:45 10° 195° (SSW) 1,965 5.8 -5.8°
Sets 07:12:01 0° 189° (S) 2,864 6.7 -5.5°
